Location: Góry Miechowskie
(50.3599°N, 20.1803°E)
Time: 12:34:48
(UTC+00:00)

Cosmos 1812 - Pass Details

Date: 15 June 2024
Orbit: 464 x 470 km, 82.5° (Epoch: 15 July)

Event Time Altitude Azimuth Distance (km) Brightness Sun altitude
Rises 01:10:10 0° 355° (N) 2,536 7.1 -9.2°
Reaches altitude 10° 01:12:21 10° 2° (N) 1,650 6.2 -9.0°
Maximum altitude 01:15:48 43° 75° (ENE) 677 3.7 -8.7°
Drops below altitude 10° 01:19:13 10° 148° (SSE) 1,628 5.0 -8.3°
Sets 01:21:21 0° 156° (SSE) 2,498 5.9 -8.1°
